OPS 4682 DEB, 51093

Orbit data source: Space-Track

OPS 4682 DEB, 51093 is space debris in LEO originally from a launch on Sat, 03 Apr 1965 UTC launched from the Air Force Western Test Range (AFWTR). Debris objects in space refer to the collection of defunct objects orbiting the Earth. Examples of debris include non-operational satellites, rocket bodies, and fragments generated from explosions, collisions, or faulty payload assembly.

Loading next visibility...
Identifier
51093, 1965-027FV
Orbit
LEO
Country
Flag of USUS
Related business
Manufacturer
Unknown
Mission
Spacecraft
Bus & Motor
Unknown
Mass
Unknown
Launch date (UTC)
1965-04-03 (61 years ago)
Launch vehicle
Unknown
Launch site
Air Force Western Test Range (AFWTR)
Object type
Payload
Rocket body
Debris
Shape & HBR
Unknown shape, 0.1 m
Radar Cross Section
Small (<0.1 m²)

Expand to show TLE details & history
Last TLE update: 2 days ago

TLE from 2 days ago
0 OPS 4682 DEB
1 51093U 65027FV  26261.28230220  .00000429  00000-0  14649-2 0  9995
2 51093  90.2395   7.2370 0038609 185.6666 174.4023 12.96646239456162
Epoch: 2026-09-18T06:46Z
TLE epoch observation values (Epoch: 2026-09-18T06:46:30.910Z)
Latitude
0.00004°
Longitude
-91.59922°
Altitude
1,307.549 km
Speed
7.189 km/s
True Right ascension
00h 28m 56s
True Declination
0° 00' 00"
Sunlit
Object was in full shadow at epoch
Visualization orbit readout
Latitude
Unknown
Longitude
Unknown
Altitude
Unknown
Speed
Unknown
Apparent Right ascension
Unknown
Apparent Declination
Unknown
Sunlit
N/A
Visualization observer readout
Local Sidereal Time
09:49:05
Azimuth
Unknown
Elevation
Unknown
Doppler factor
Unknown
Orbital elements
Apogee altitude
1,301.925 km
Perigee altitude
1,242.849 km
Semi-major axis
7,650.524 km
Eccentricity
0.00386
Inclination
90.2395°
RAAN
7.237°
Arg. of periapsis
185.6666°
True anomaly
174.44525°
Mean anomaly
174.4023°
Eccentric anomaly
174.4238°
Mean motion
3.24344 °/min
Orbital period
110.99 mins
BSTAR
0.0014649
Loading maneuver chart data...
Computing Atmospheric mass density...
Loading historical data...
Loading historical data...
Loading historical data...
Loading historical data...
Loading historical data...
Loading historical data...
Loading historical data...

Documentation

Showing up to 5 results
|